Regional Weather Roundup
Issued by NWS

Home | Current Version | Previous Version | Graphics & Text | Print | Product List | Glossary On
Versions: 1 2 3 4 5 6 7 8 9 10 11 12 13 14 15 16 17 18 19 20 21 22 23 24 25 26 27 28 29 30 31 32 33 34 35 36 37 38 39 40 41 42 43 44 45 46 47 48 49 50
000
ASUS43 KDMX 022107
RWRIA

WEATHER ROUNDUP FOR IOWA
NATIONAL WEATHER SERVICE DES MOINES IA
400 PM CDT SUN AUG 02 2015

NOTE: "FAIR" INDICATES FEW OR NO CLOUDS BELOW 12,000 FEET WITH NO
SIGNIFICANT WEATHER AND/OR OBSTRUCTIONS TO VISIBILITY.

* - THESE STATIONS ARE NOT NWS STATIONS...THUS NOT UNDER NWS
QUALITY CONTROL.  THEY ALSO DO NOT REPORT WEATHER SUCH
AS PRECIPITATION OR FOG.

IAZ001>003-012>014-020>022-031>034-043>046-022200-
   NORTHWEST IOWA

CITY           SKY/WX    TMP DP  RH WIND       PRES   REMARKS
CARROLL *      MOSUNNY   88  75  66 NW10G17   29.80S HX  97
CHEROKEE *     SUNNY     84  72  65 NW8       29.82S HX  89
DENISON *      SUNNY     86  75  70 W7G13     29.80S HX  95
LE MARS *      SUNNY     86  72  62 N6G13     29.83S HX  92
ORANGE CITY *  SUNNY     84  66  54 NE3       29.83S HX  86
SHELDON *      SUNNY     84  70  61 NW10G16   29.82S HX  88
SPENCER        SUNNY     89  65  44 N15       29.81S HX  91
STORM LAKE *   SUNNY     84  73  70 NW10      29.83R HX  91
$$

IAZ055>058-069>071-079>083-090>094-022200-
   SOUTHWEST IOWA

CITY           SKY/WX    TMP DP  RH WIND       PRES   REMARKS
ATLANTIC *     SUNNY     90  77  66 SW17      29.78F HX 102
AUDUBON *      SUNNY     90  77  66 W8        29.81R HX 102
CLARINDA *     SUNNY     91  77  62 SW12G20   29.84F HX 105
COUNCIL BLFS * SUNNY     93  73  52 SW17      29.79F HX 102
CRESTON *      SUNNY     88  75  66 SW14G22   29.83F HX  97
HARLAN  *      SUNNY     90  81  74 W14       29.83R HX 108
LAMONI         MOSUNNY   90  75  61 SW17      29.83F HX 100
RED OAK *      SUNNY     90  77  66 SW15      29.81F HX 102
SHENANDOAH *   SUNNY     90  77  66 SW9G17    29.82F HX 102
$$

IAZ047>049-059>061-072>074-084-022200-
   CENTRAL IOWA

CITY           SKY/WX    TMP DP  RH WIND       PRES   REMARKS
AMES           SUNNY     88  75  65 W14G21    29.76S HX  97
ANKENY *       SUNNY     91  73  55 SW15      29.75F HX 100
CHARITON *     SUNNY     90  75  62 W14G22    29.80F HX 100
DES MOINES     MOSUNNY   93  71  48 W16G25    29.75F HX 100
GRINNELL*      SUNNY     90  75  62 SW13G21   29.76F HX 100
KNOXVILLE *    SUNNY     90  75  62 SW12G21   29.76F HX 100
MARSHALLTOWN   SUNNY     88  75  65 W13G21    29.74F HX  97
PELLA *        SUNNY     91  77  62 SW12G20   29.77F HX 105
PERRY *          N/A     90  77  66 W18       29.78R HX 102
$$

IAZ004>006-015-016-023>025-035-036-022200-
   NORTH CENTRAL IOWA

CITY           SKY/WX    TMP DP  RH WIND       PRES   REMARKS
ALGONA *       SUNNY     86  66  51 NW12      29.79S HX  88
CLARION *      SUNNY     88  70  55 NW12G20   29.77S HX  92
ESTHERVILLE    SUNNY     85  67  54 N14       29.80R HX  87
FORT DODGE *   SUNNY     88  73  62 W9        29.79R HX  96
MASON CITY     SUNNY     88  67  49 NW13      29.77R HX  91
FOREST CITY *  SUNNY     82  64  54 NW13G18   29.77R HX  84
IOWA FALLS *     N/A     88  73  62 W13G20    29.77S HX  96
$$

IAZ007>011-017>019-026>030-037>042-050>054-066-022200-
   NORTHEAST IOWA

CITY           SKY/WX    TMP DP  RH WIND       PRES   REMARKS
CEDAR RAPIDS   MOSUNNY   88  77  69 SW20      29.72F HX 100
CHARLES CITY * SUNNY     86  72  62 W17G23    29.74R HX  92
CLINTON *      SUNNY     90  73  58 SW22      29.74F HX  98
DECORAH *      SUNNY     88  66  48 W10G23    29.69S HX  90
DUBUQUE        SUNNY     88  74  63 SW22G30   29.69F HX  96
MONTICELLO *   SUNNY     90  75  62 SW20G29   29.70F HX 100
OELWEIN *      SUNNY     88  77  70 W13G18    29.73S HX 100
WATERLOO       MOSUNNY   89  74  60 W16       29.72S HX  98
$$

IAZ064-065-067-068-078-022200-
   EAST CENTRAL IOWA

CITY           SKY/WX    TMP DP  RH WIND       PRES   REMARKS
DAVENPORT      MOSUNNY   88  73  61 SW17G26   29.75F HX  95
IOWA CITY      SUNNY     90  75  61 SW16G24   29.75F HX 100
MT. PLEASANT * SUNNY     91  70  49 SW16      29.78F HX  97
MUSCATINE *      N/A     93  72  49 SW20G28   29.75S HX 100
QUAD CITIES    MOSUNNY   90  73  57 SW20G25   29.74F HX  98
$$

IAZ062-063-075>077-085>089-095>099-022200-
   SOUTHEAST IOWA

CITY           SKY/WX    TMP DP  RH WIND       PRES   REMARKS
BURLINGTON     MOSUNNY   90  75  61 SW14G21   29.79F HX 100
FAIRFIELD *    SUNNY     90  73  58 W14G21    29.78F HX  98
FORT MADISON * SUNNY     90  73  58 SW15G21   29.81F HX  98
KEOKUK *       SUNNY     91  73  55 SW20      29.80F HX 100
OSKALOOSA *      N/A     90  73  58 W10G21    29.78F HX  98
CENTERVILLE *  SUNNY     90  75  62 SW14      29.83F HX 100
OTTUMWA        SUNNY     88  75  65 SW16      29.77F HX  97
WASHINGTON *   SUNNY     90  75  62 W16       29.78F HX 100
$$

ABBREVIATIONS USED IN REMARKS
   TC - TEMPERATURES IN CELSIUS
  WCI - WIND CHILL INDEX
   HX - HEAT INDEX
  VSB - VISIBILITY
$$



USA.gov is the U.S. government's official web portal to all federal, state and local government web resources and services.